When you browse on this site, cookies collect data to enhance your experience and personalize the content and advertising you see.
Visit our Privacy Policy to learn more. By continuing to use the site, you agree to this use of cookies and data.
  • In United Kingdom
  • List of Countries
  • For 7 days
  • Water Temperature
  • Satellite Maps
  • Weather Map
  • Weather Widgets
  • user-avatar
    Login

    Hourly Weather Santa Maria Petapa

    Today, 21 January, Monday

    Time Temperature Precipitation Wind Pressure Humidity
    00:00 +16°C° 0 mm 7 mps 745 mmHg 74%
    01:00 +16°C° 0 mm 7 mps 745 mmHg 75%
    02:00 +16°C° 0 mm 6 mps 744 mmHg 76%
    03:00 +16°C° 0 mm 6 mps 744 mmHg 77%
    04:00 +16°C° 0 mm 6 mps 744 mmHg 78%
    05:00 +15°C° 0 mm 5 mps 744 mmHg 79%
    06:00 +15°C° 0 mm 5 mps 744 mmHg 80%
    07:00 +16°C° 0 mm 5 mps 744 mmHg 76%
    08:00 +17°C° 0 mm 5 mps 744 mmHg 73%
    09:00 +19°C° 0 mm 5 mps 744 mmHg 69%
    10:00 +20°C° 0 mm 5 mps 744 mmHg 63%
    11:00 +21°C° 0 mm 5 mps 744 mmHg 58%
    12:00 +23°C° 0 mm 5 mps 743 mmHg 53%
    13:00 +23°C° 0 mm 5 mps 742 mmHg 52%
    14:00 +25°C° 0 mm 5 mps 742 mmHg 52%
    15:00 +25°C° 0 mm 5 mps 741 mmHg 52%
    16:00 +23°C° 0 mm 5 mps 741 mmHg 58%
    17:00 +21°C° 0 mm 4 mps 741 mmHg 64%
    18:00 +20°C° 0 mm 4 mps 741 mmHg 71%
    19:00 +19°C° 0 mm 4 mps 741 mmHg 75%
    20:00 +18°C° 0 mm 4 mps 742 mmHg 79%
    21:00 +17°C° 0 mm 4 mps 742 mmHg 83%
    22:00 +17°C° 0 mm 3 mps 742 mmHg 83%
    23:00 +17°C° 0 mm 3 mps 742 mmHg 84%

    Tomorrow, 22 January, Tuesday

    Time Temperature Precipitation Wind Pressure Humidity
    00:00 +16°C° 0 mm 3 mps 742 mmHg 84%
    01:00 +16°C° 0 mm 3 mps 741 mmHg 85%
    02:00 +16°C° 0 mm 3 mps 741 mmHg 85%
    03:00 +16°C° 0 mm 3 mps 740 mmHg 86%
    04:00 +14°C° 0 mm 3 mps 740 mmHg 87%
    05:00 +15°C° 0 mm 2 mps 740 mmHg 87%
    06:00 +15°C° 0 mm 2 mps 740 mmHg 88%
    07:00 +17°C° 0 mm 2 mps 740 mmHg 82%
    08:00 +18°C° 0 mm 2 mps 741 mmHg 75%
    09:00 +20°C° 0 mm 2 mps 741 mmHg 69%
    10:00 +24°C° 0 mm 2 mps 741 mmHg 60%
    11:00 +27°C° 0 mm 2 mps 741 mmHg 52%
    12:00 +29°C° 0 mm 2 mps 740 mmHg 43%
    13:00 +30°C° 0 mm 1 mps 740 mmHg 40%
    14:00 +31°C° 0 mm 1 mps 739 mmHg 38%
    15:00 +32°C° 0 mm 1 mps 738 mmHg 35%
    16:00 +30°C° 0 mm 1 mps 738 mmHg 41%
    17:00 +28°C° 0 mm 1 mps 738 mmHg 47%
    18:00 +26°C° 0 mm 1 mps 738 mmHg 53%
    19:00 +24°C° 0 mm 1 mps 738 mmHg 58%
    20:00 +23°C° 0 mm 1 mps 739 mmHg 62%
    21:00 +19°C° 0 mm 0 mps 739 mmHg 66%
    22:00 +19°C° 0 mm 0 mps 739 mmHg 65%
    23:00 +19°C° 0 mm 0 mps 739 mmHg 64%

    Day after tomorrow, 23 January, Wednesday

    Time Temperature Precipitation Wind Pressure Humidity
    00:00 +18°C° 0 mm 0 mps 739 mmHg 62%
    01:00 +20°C° 0 mm 1 mps 739 mmHg 61%
    02:00 +20°C° 0 mm 1 mps 738 mmHg 59%
    03:00 +20°C° 0 mm 1 mps 738 mmHg 58%
    04:00 +20°C° 0 mm 1 mps 738 mmHg 60%
    05:00 +20°C° 0 mm 1 mps 738 mmHg 62%
    06:00 +20°C° 0 mm 1 mps 738 mmHg 64%
    07:00 +21°C° 0 mm 2 mps 738 mmHg 61%
    08:00 +24°C° 0 mm 2 mps 739 mmHg 58%
    09:00 +26°C° 0 mm 2 mps 739 mmHg 56%
    10:00 +28°C° 0 mm 3 mps 739 mmHg 52%
    11:00 +30°C° 0 mm 3 mps 739 mmHg 47%
    12:00 +33°C° 0 mm 3 mps 739 mmHg 43%
    13:00 +34°C° 0 mm 3 mps 739 mmHg 43%
    14:00 +34°C° 0 mm 2 mps 738 mmHg 43%
    15:00 +35°C° 0 mm 2 mps 738 mmHg 43%
    16:00 +31°C° 0 mm 3 mps 738 mmHg 54%
    17:00 +28°C° 0 mm 5 mps 739 mmHg 66%
    18:00 +24°C° 0 mm 6 mps 740 mmHg 77%
    19:00 +23°C° 0.1 mm 6 mps 741 mmHg 79%
    20:00 +22°C° 0.1 mm 6 mps 742 mmHg 80%
    21:00 +22°C° 0.1 mm 7 mps 743 mmHg 82%
    22:00 +21°C° 0.1 mm 7 mps 743 mmHg 82%
    23:00 +21°C° 0.1 mm 7 mps 743 mmHg 82%

    24 January, Thursday

    Time Temperature Precipitation Wind Pressure Humidity
    00:00 +20°C° 0.1 mm 7 mps 743 mmHg 82%
    01:00 +20°C° 0 mm 7 mps 742 mmHg 82%
    02:00 +20°C° 0 mm 7 mps 742 mmHg 83%
    03:00 +18°C° 0 mm 7 mps 742 mmHg 83%
    04:00 +18°C° 0 mm 7 mps 742 mmHg 82%
    05:00 +18°C° 0 mm 7 mps 742 mmHg 81%
    06:00 +17°C° 0 mm 7 mps 742 mmHg 80%
    07:00 +18°C° 0 mm 7 mps 743 mmHg 78%
    08:00 +18°C° 0 mm 7 mps 744 mmHg 76%
    09:00 +18°C° 0 mm 7 mps 744 mmHg 74%
    10:00 +20°C° 0 mm 7 mps 744 mmHg 70%
    11:00 +21°C° 0 mm 7 mps 744 mmHg 66%
    12:00 +22°C° 0 mm 7 mps 744 mmHg 62%
    13:00 +22°C° 0 mm 7 mps 743 mmHg 63%
    14:00 +22°C° 0 mm 6 mps 742 mmHg 64%
    15:00 +22°C° 0 mm 6 mps 741 mmHg 65%
    16:00 +21°C° 0 mm 6 mps 741 mmHg 70%
    17:00 +21°C° 0 mm 5 mps 741 mmHg 74%
    18:00 +20°C° 0 mm 5 mps 741 mmHg 78%
    19:00 +19°C° 0 mm 5 mps 741 mmHg 80%
    20:00 +19°C° 0 mm 5 mps 742 mmHg 81%
    21:00 +19°C° 0 mm 5 mps 743 mmHg 82%
    22:00 +19°C° 0 mm 5 mps 742 mmHg 82%
    23:00 +17°C° 0 mm 5 mps 742 mmHg 83%

    25 January, Friday

    Time Temperature Precipitation Wind Pressure Humidity
    00:00 +18°C° 0 mm 4 mps 742 mmHg 83%
    01:00 +18°C° 0 mm 4 mps 742 mmHg 84%
    02:00 +18°C° 0 mm 4 mps 742 mmHg 85%
    03:00 +17°C° 0 mm 4 mps 741 mmHg 86%
    04:00 +17°C° 0 mm 4 mps 741 mmHg 86%
    05:00 +17°C° 0 mm 4 mps 742 mmHg 86%
    06:00 +17°C° 0 mm 4 mps 742 mmHg 85%
    07:00 +17°C° 0 mm 5 mps 743 mmHg 82%
    08:00 +19°C° 0 mm 5 mps 743 mmHg 78%
    09:00 +20°C° 0 mm 5 mps 744 mmHg 74%
    10:00 +21°C° 0 mm 6 mps 744 mmHg 72%
    11:00 +22°C° 0 mm 6 mps 744 mmHg 69%
    12:00 +23°C° 0 mm 6 mps 744 mmHg 66%
    13:00 +23°C° 0 mm 6 mps 743 mmHg 67%
    14:00 +23°C° 0 mm 7 mps 742 mmHg 67%
    15:00 +23°C° 0 mm 7 mps 742 mmHg 67%
    16:00 +22°C° 0.1 mm 7 mps 742 mmHg 73%
    17:00 +21°C° 0.1 mm 7 mps 743 mmHg 78%
    18:00 +20°C° 0.1 mm 7 mps 743 mmHg 83%
    19:00 +20°C° 0.1 mm 7 mps 744 mmHg 83%
    20:00 +20°C° 0.1 mm 7 mps 744 mmHg 83%
    21:00 +20°C° 0.1 mm 6 mps 745 mmHg 84%
    22:00 +19°C° 0.1 mm 6 mps 745 mmHg 84%
    23:00 +19°C° 0.1 mm 6 mps 745 mmHg 85%

    26 January, Saturday

    Time Temperature Precipitation Wind Pressure Humidity
    00:00 +19°C° 0.1 mm 6 mps 745 mmHg 86%
    01:00 +19°C° 0.1 mm 6 mps 744 mmHg 87%
    02:00 +19°C° 0.1 mm 6 mps 744 mmHg 87%
    03:00 +17°C° 0.1 mm 6 mps 743 mmHg 88%
    04:00 +17°C° 0.1 mm 6 mps 743 mmHg 88%
    05:00 +17°C° 0.1 mm 5 mps 743 mmHg 88%
    06:00 +17°C° 0.1 mm 5 mps 743 mmHg 87%
    07:00 +19°C° 0.1 mm 5 mps 743 mmHg 86%
    08:00 +19°C° 0.1 mm 5 mps 744 mmHg 84%
    09:00 +19°C° 0.1 mm 5 mps 744 mmHg 82%
    10:00 +20°C° 0 mm 5 mps 743 mmHg 78%
    11:00 +21°C° 0 mm 5 mps 743 mmHg 74%
    12:00 +22°C° 0 mm 5 mps 742 mmHg 69%
    13:00 +23°C° 0 mm 5 mps 741 mmHg 65%
    14:00 +25°C° 0 mm 4 mps 740 mmHg 61%
    15:00 +26°C° 0 mm 4 mps 739 mmHg 57%
    16:00 +25°C° 0 mm 4 mps 739 mmHg 63%
    17:00 +23°C° 0 mm 4 mps 739 mmHg 69%
    18:00 +22°C° 0 mm 4 mps 739 mmHg 75%
    19:00 +21°C° 0 mm 3 mps 740 mmHg 80%
    20:00 +20°C° 0 mm 3 mps 741 mmHg 85%
    21:00 +19°C° 0 mm 3 mps 741 mmHg 90%
    22:00 +19°C° 0 mm 3 mps 741 mmHg 92%
    23:00 +18°C° 0 mm 2 mps 741 mmHg 93%
    Show more